Hourly Data Report for June 26, 2012

HALIFAX STANFIELD INT'L A
NOVA SCOTIA

44°52'48.060" N
63°30'00.050" W
145.40 m
8202250
71395
YHZ

Download Data

Hourly Data (June 2012)
Hourly Data Report for June 26, 2012
TIME
LST
Temp Definition
°C
Dew Point Definition
°C
Rel Hum Definition
%
Precip. Amount Definition
mm

Wind Dir Definition
10's deg

Wind Spd Definition
km/h
Visibility Definition
km
Stn Press Definition
kPa
Hmdx Definition


Wind Chill Definition


Weather Definition


00:00 15.9 15.5 97   14 17 19.3 99.63     Mostly Cloudy
01:00 15.8 14.4 91   12 15 24.1 99.57     Mostly Cloudy
02:00 15.0 14.2 95   13 15 24.1 99.50     Mostly Cloudy
03:00 15.7 15.0 96   13 19 19.3 99.46     Cloudy
04:00 16.2 15.6 96   12 26 19.3 99.41     Cloudy
05:00 16.0 15.5 97   11 20 19.3 99.36     Cloudy
06:00 16.1 16.0 99   11 22 1.6 99.29     Fog
07:00 16.3 16.3 100   12 28 1.0 99.21     Rain Showers, Fog
08:00 16.7 16.7 100   13 28 0.8 99.14     Drizzle, Fog
09:00 16.5 16.5 100   13 24 0.8 99.10     Fog
10:00 16.1 16.1 100   13 28 0.8 99.09     Fog
11:00 16.5 16.5 100   13 28 0.8 99.04     Rain Showers, Fog
12:00 16.5 16.5 100   13 32 8.0 98.95     Moderate Rain Showers, Fog
13:00 17.0 16.9 99   13 30 1.0 98.86     Rain Showers, Fog
14:00 16.8 16.8 100   12 32 2.4 98.79     Rain Showers, Fog
15:00 16.8 16.6 99   13 20 2.4 98.63     Rain Showers, Fog
16:00 17.9 17.8 99   14 44 2.4 98.41     Moderate Rain Showers, Fog
17:00 17.4 17.3 99   14 39 1.6 98.24     Rain Showers, Fog
18:00 17.2 17.2 100   16 37 1.6 98.23     Rain Showers, Fog
19:00 16.3 16.3 100   17 30 1.6 98.31     Rain Showers, Fog
20:00 15.7 15.7 100   18 24 1.2 98.42     Fog
21:00 15.4 15.4 100   17 19 1.6 98.48     Fog
22:00 15.2 15.2 100   17 13 2.4 98.56     Fog
23:00 15.1 15.1 100   15 11 1.6 98.57     Fog

Notes on Data Quality.

Legend

  • E = Estimated
  • M = Missing
  • NA = Not Available*
  • [empty] = Indicates an unobserved value
Date modified: